Volver al catálogo

CZ-4B SEP MOTOR COVER

LostSSO
NORAD 61937·DEBRIS·🇨🇳 China
Este nombre de satélite aún no ha sido confirmado por fuentes oficiales.

Lanzado Nov 13, 2024 desde Taiyuan Satellite Launch Center

Loading…

Próximos Pases (próximas 24 horas)

TLE

ObsoletoSource: Space-Track

Época: Dec 4, 2024, 14:52 UTC

1 61937U 24208B   24339.61984667  .00005938  00000-0  68066-3 0  9994
2 61937  97.9895 344.2662 0042659 126.0176 234.5004 14.85629148  3077

Sigue CZ-4B SEP MOTOR COVER en tiempo real con AllMySat

Download on the App Store